(°C)
-5°
-5°
-5°
-6°
-6°
-7°
-7°
(°C)
-11°
-11°
-11°
-12°
-12°
-13°
-13°
ΒΒΑ
ΒΒΑ
ΒΒΑ
ΒΒΑ
ΒΒΑ
ΒΒΑ
ΒΒΑ
(χλμ / ω)
11-22
12-22
12-21
13-21
12-21
11-21
11-20
(χιλιοστά)
0
0
0
0
0
0
0
(%)
0
0
0
0
0
0
0

Ανύψωση ήλιου

/ -58.1°
sun-icon
UV 2
07:17
17:09
Φθίνων αμφίκυρτος (φάση σελήνης) (220°)
20:55
09:41

METAR για Wilmington Manor (KILG)

Χρόνος Συνθήκες Θερμοκρασία/
Σημείο δρόσου
Άνεμος Ορατότητα Καιρός Νέφη Πίεση Αλλαγή Ανεπεξέργαστο
VFR -4.4°C / °C 30º 9kt >10km - Clear 1033 - KILG 220251Z AUTO 03009KT 10SM CLR M04/M18 A3051 RMK AO2 SLP332 T10441178 58009 $
VFR -4.4°C / °C 40º 12kt >10km - Clear 1033 - KILG 220151Z AUTO 04012KT 10SM CLR M04/M18 A3052 RMK AO2 SLP337 T10441178 $
VFR -4.4°C / °C 30º 11kt >10km - Clear 1033 - KILG 220051Z 03011KT 10SM CLR M04/M16 A3053 RMK AO2 SLP338 T10441161 $
VFR -4.4°C / °C 10º 7kt >10km - Clear 1034 - KILG 212351Z 01007KT 10SM CLR M04/M15 A3054 RMK AO2 SLP341 T10441150 11028 21044 52010 $
VFR -4.4°C / °C 20º 8kt >10km - Clear 1033 - KILG 212251Z 02008KT 10SM CLR M04/M16 A3052 RMK AO2 SLP337 T10441156 $
VFR -3.9°C / °C 20º 8kt >10km - Clear 1033 - KILG 212151Z 02008KT 10SM CLR M04/M16 A3052 RMK AO2 SLP335 T10391156 $
VFR -3.9°C / °C 20º 10kt >10km - Clear 1033 - KILG 212051Z 02010KT 10SM CLR M04/M16 A3051 RMK AO2 SLP331 T10391156 55006
VFR -2.8°C / °C 10º 6kt >10km - Clear 1032 - KILG 211951Z 01006KT 10SM CLR M03/M16 A3050 RMK AO2 SLP328 T10281156 $
VFR -3.3°C / °C 50º 8kt >10km - Clear 1032 - KILG 211851Z 05008KT 10SM CLR M03/M16 A3050 RMK AO2 SLP329 T10331161 $
VFR -4.4°C / °C 40º 9kt >10km - Clear 1033 - KILG 211751Z 04009KT 10SM CLR M04/M16 A3052 RMK AO2 SLP337 T10441161 11039 21089 58014 $
VFR -5°C / °C 10º 10kt Gust 17kt >10km - Clear 1034 - KILG 211651Z 01010G17KT 10SM CLR M05/M16 A3054 RMK AO2 SLP344 T10501156 $
VFR -5.6°C / °C 20º 8kt >10km - Clear 1035 - KILG 211551Z 02008KT 10SM CLR M06/M16 A3057 RMK AO2 SLP352 T10561156 $
VFR -7.2°C / °C 350º 13kt >10km - Clear 1035 - KILG 211451Z 35013KT 10SM CLR M07/M16 A3057 RMK AO2 SLP351 T10721156 51015 $
VFR -7.8°C / °C 360º 10kt >10km - Clear 1034 - KILG 211351Z 36010KT 10SM CLR M08/M16 A3055 RMK AO2 SLP346 T10781156 $
VFR -8.3°C / °C 360º 7kt >10km - Clear 1034 - KILG 211251Z 36007KT 10SM CLR M08/M16 A3054 RMK AO2 SLP343 T10831156 $
VFR -8.9°C / °C 360º 10kt >10km - Clear 1033 - KILG 211151Z 36010KT 10SM CLR M09/M16 A3052 RMK AO2 SLP336 70009 T10891156 11061 21089 53025 $
VFR -8.9°C / °C 360º 8kt >10km - Clear 1032 - KILG 211051Z AUTO 36008KT 10SM CLR M09/M16 A3049 RMK AO2 SLP326 T10891161 $
VFR -8.3°C / °C 360º 13kt >10km - Clear 1031 - KILG 210951Z AUTO 36013KT 10SM CLR M08/M16 A3047 RMK AO2 SLP317 T10831161 $
VFR -7.8°C / °C 10º 16kt Gust 22kt >10km - Clear 1031 - KILG 210851Z AUTO 01016G22KT 10SM CLR M08/M16 A3045 RMK AO2 SLP311 T10781161 51011 $
VFR -7.2°C / °C 360º 19kt Gust 23kt >10km - Clear 1030 - KILG 210751Z AUTO 36019G23KT 10SM CLR M07/M16 A3044 RMK AO2 SLP308 T10721161 $
VFR -7.2°C / °C 360º 12kt >10km - Clear 1030 - KILG 210651Z AUTO 36012KT 10SM CLR M07/M16 A3043 RMK AO2 SLP304 T10721156 $
VFR -6.1°C / °C 350º 14kt Gust 19kt >10km - Clear 1030 - KILG 210551Z AUTO 35014G19KT 10SM CLR M06/M16 A3041 RMK AO2 SLP300 T10611156 11006 21061 51006 $
VFR -5.6°C / °C 360º 15kt Gust 21kt >10km - Clear 1029 - KILG 210451Z AUTO 36015G21KT 10SM CLR M06/M16 A3041 RMK AO2 SLP299 T10561156 400781056 $
VFR -5°C / °C 360º 13kt Gust 19kt >10km - Clear 1030 - KILG 210351Z AUTO 36013G19KT 10SM CLR M05/M15 A3042 RMK AO2 SLP301 T10501150 $

VFR

-4.4°C / °C

[Περισσότερο]
Άνεμος 30º 9kt
Ορατότητα >10km
Καιρός -
Νέφη Clear
Πίεση 1033
Αλλαγή -
Ανεπεξέργαστο KILG 220251Z AUTO 03009KT 10SM CLR M04/M18 A3051 RMK AO2 SLP332 T10441178 58009 $

VFR

-4.4°C / °C

[Περισσότερο]
Άνεμος 40º 12kt
Ορατότητα >10km
Καιρός -
Νέφη Clear
Πίεση 1033
Αλλαγή -
Ανεπεξέργαστο KILG 220151Z AUTO 04012KT 10SM CLR M04/M18 A3052 RMK AO2 SLP337 T10441178 $

VFR

-4.4°C / °C

[Περισσότερο]
Άνεμος 30º 11kt
Ορατότητα >10km
Καιρός -
Νέφη Clear
Πίεση 1033
Αλλαγή -
Ανεπεξέργαστο KILG 220051Z 03011KT 10SM CLR M04/M16 A3053 RMK AO2 SLP338 T10441161 $

VFR

-4.4°C / °C

[Περισσότερο]
Άνεμος 10º 7kt
Ορατότητα >10km
Καιρός -
Νέφη Clear
Πίεση 1034
Αλλαγή -
Ανεπεξέργαστο KILG 212351Z 01007KT 10SM CLR M04/M15 A3054 RMK AO2 SLP341 T10441150 11028 21044 52010 $

VFR

-4.4°C / °C

[Περισσότερο]
Άνεμος 20º 8kt
Ορατότητα >10km
Καιρός -
Νέφη Clear
Πίεση 1033
Αλλαγή -
Ανεπεξέργαστο KILG 212251Z 02008KT 10SM CLR M04/M16 A3052 RMK AO2 SLP337 T10441156 $

VFR

-3.9°C / °C

[Περισσότερο]
Άνεμος 20º 8kt
Ορατότητα >10km
Καιρός -
Νέφη Clear
Πίεση 1033
Αλλαγή -
Ανεπεξέργαστο KILG 212151Z 02008KT 10SM CLR M04/M16 A3052 RMK AO2 SLP335 T10391156 $

VFR

-3.9°C / °C

[Περισσότερο]
Άνεμος 20º 10kt
Ορατότητα >10km
Καιρός -
Νέφη Clear
Πίεση 1033
Αλλαγή -
Ανεπεξέργαστο KILG 212051Z 02010KT 10SM CLR M04/M16 A3051 RMK AO2 SLP331 T10391156 55006

VFR

-2.8°C / °C

[Περισσότερο]
Άνεμος 10º 6kt
Ορατότητα >10km
Καιρός -
Νέφη Clear
Πίεση 1032
Αλλαγή -
Ανεπεξέργαστο KILG 211951Z 01006KT 10SM CLR M03/M16 A3050 RMK AO2 SLP328 T10281156 $

VFR

-3.3°C / °C

[Περισσότερο]
Άνεμος 50º 8kt
Ορατότητα >10km
Καιρός -
Νέφη Clear
Πίεση 1032
Αλλαγή -
Ανεπεξέργαστο KILG 211851Z 05008KT 10SM CLR M03/M16 A3050 RMK AO2 SLP329 T10331161 $

VFR

-4.4°C / °C

[Περισσότερο]
Άνεμος 40º 9kt
Ορατότητα >10km
Καιρός -
Νέφη Clear
Πίεση 1033
Αλλαγή -
Ανεπεξέργαστο KILG 211751Z 04009KT 10SM CLR M04/M16 A3052 RMK AO2 SLP337 T10441161 11039 21089 58014 $

VFR

-5°C / °C

[Περισσότερο]
Άνεμος 10º 10kt Gust 17kt
Ορατότητα >10km
Καιρός -
Νέφη Clear
Πίεση 1034
Αλλαγή -
Ανεπεξέργαστο KILG 211651Z 01010G17KT 10SM CLR M05/M16 A3054 RMK AO2 SLP344 T10501156 $

VFR

-5.6°C / °C

[Περισσότερο]
Άνεμος 20º 8kt
Ορατότητα >10km
Καιρός -
Νέφη Clear
Πίεση 1035
Αλλαγή -
Ανεπεξέργαστο KILG 211551Z 02008KT 10SM CLR M06/M16 A3057 RMK AO2 SLP352 T10561156 $

VFR

-7.2°C / °C

[Περισσότερο]
Άνεμος 350º 13kt
Ορατότητα >10km
Καιρός -
Νέφη Clear
Πίεση 1035
Αλλαγή -
Ανεπεξέργαστο KILG 211451Z 35013KT 10SM CLR M07/M16 A3057 RMK AO2 SLP351 T10721156 51015 $

VFR

-7.8°C / °C

[Περισσότερο]
Άνεμος 360º 10kt
Ορατότητα >10km
Καιρός -
Νέφη Clear
Πίεση 1034
Αλλαγή -
Ανεπεξέργαστο KILG 211351Z 36010KT 10SM CLR M08/M16 A3055 RMK AO2 SLP346 T10781156 $

VFR

-8.3°C / °C

[Περισσότερο]
Άνεμος 360º 7kt
Ορατότητα >10km
Καιρός -
Νέφη Clear
Πίεση 1034
Αλλαγή -
Ανεπεξέργαστο KILG 211251Z 36007KT 10SM CLR M08/M16 A3054 RMK AO2 SLP343 T10831156 $

VFR

-8.9°C / °C

[Περισσότερο]
Άνεμος 360º 10kt
Ορατότητα >10km
Καιρός -
Νέφη Clear
Πίεση 1033
Αλλαγή -
Ανεπεξέργαστο KILG 211151Z 36010KT 10SM CLR M09/M16 A3052 RMK AO2 SLP336 70009 T10891156 11061 21089 53025 $

VFR

-8.9°C / °C

[Περισσότερο]
Άνεμος 360º 8kt
Ορατότητα >10km
Καιρός -
Νέφη Clear
Πίεση 1032
Αλλαγή -
Ανεπεξέργαστο KILG 211051Z AUTO 36008KT 10SM CLR M09/M16 A3049 RMK AO2 SLP326 T10891161 $

VFR

-8.3°C / °C

[Περισσότερο]
Άνεμος 360º 13kt
Ορατότητα >10km
Καιρός -
Νέφη Clear
Πίεση 1031
Αλλαγή -
Ανεπεξέργαστο KILG 210951Z AUTO 36013KT 10SM CLR M08/M16 A3047 RMK AO2 SLP317 T10831161 $

VFR

-7.8°C / °C

[Περισσότερο]
Άνεμος 10º 16kt Gust 22kt
Ορατότητα >10km
Καιρός -
Νέφη Clear
Πίεση 1031
Αλλαγή -
Ανεπεξέργαστο KILG 210851Z AUTO 01016G22KT 10SM CLR M08/M16 A3045 RMK AO2 SLP311 T10781161 51011 $

VFR

-7.2°C / °C

[Περισσότερο]
Άνεμος 360º 19kt Gust 23kt
Ορατότητα >10km
Καιρός -
Νέφη Clear
Πίεση 1030
Αλλαγή -
Ανεπεξέργαστο KILG 210751Z AUTO 36019G23KT 10SM CLR M07/M16 A3044 RMK AO2 SLP308 T10721161 $

VFR

-7.2°C / °C

[Περισσότερο]
Άνεμος 360º 12kt
Ορατότητα >10km
Καιρός -
Νέφη Clear
Πίεση 1030
Αλλαγή -
Ανεπεξέργαστο KILG 210651Z AUTO 36012KT 10SM CLR M07/M16 A3043 RMK AO2 SLP304 T10721156 $

VFR

-6.1°C / °C

[Περισσότερο]
Άνεμος 350º 14kt Gust 19kt
Ορατότητα >10km
Καιρός -
Νέφη Clear
Πίεση 1030
Αλλαγή -
Ανεπεξέργαστο KILG 210551Z AUTO 35014G19KT 10SM CLR M06/M16 A3041 RMK AO2 SLP300 T10611156 11006 21061 51006 $

VFR

-5.6°C / °C

[Περισσότερο]
Άνεμος 360º 15kt Gust 21kt
Ορατότητα >10km
Καιρός -
Νέφη Clear
Πίεση 1029
Αλλαγή -
Ανεπεξέργαστο KILG 210451Z AUTO 36015G21KT 10SM CLR M06/M16 A3041 RMK AO2 SLP299 T10561156 400781056 $

VFR

-5°C / °C

[Περισσότερο]
Άνεμος 360º 13kt Gust 19kt
Ορατότητα >10km
Καιρός -
Νέφη Clear
Πίεση 1030
Αλλαγή -
Ανεπεξέργαστο KILG 210351Z AUTO 36013G19KT 10SM CLR M05/M15 A3042 RMK AO2 SLP301 T10501150 $

TAF για Wilmington Manor (KILG)

From till


From till Wind 20º 10kt. Visibility 10km or more. Broken Clouds 20000ft.
From till Wind 290º 6kt. Visibility 10km or more. Few Clouds 20000ft.

Ανεπεξέργαστο: KILG 212320Z 2200/2224 02010KT P6SM BKN200 FM221900 29006KT P6SM FEW200

Ραντάρ και πρόγνωση υετού μικρής δειάρκειας για Wilmington Manor

Ψιλοβρέχει
Φως
Μέτρια
Βαριά
Πολύ βαρύ
Χαλάζι

Ο δείκτης θέσης τοποθετείται στο Wilmington Manor. Αυτή η κινούμενη εικόνα δείχνει την ραντάρ βροχόπτωσης για την τελευταία ώρα, καθώς και 1πρόγνωση h. Το ψιλόβροχο ή το ελαφρύ χιόνι μπορεί να είναι αόρατο για το ραντάρ. Η ένταση της βροχόπτωσης είναι χρωματικά κωδικοποιημένη και κυμαίνεται από γαλάζιο έως πορτοκαλί.

Τρέχουσες εικόνες δορυφόρου για Wilmington Manor, ΗΠΑ

Η ένδειξη τοποθεσίας τοποθετείται στο Wilmington Manor. [Περισσότερο]

Οι δορυφορικές εικόνες σε πραγματικό χρόνο συνδυάζουν ορατό φως κατά τη διάρκεια της ημέρας με υπέρυθρη ακτινοβολία κατά τη διάρκεια της νύχτας. Κατά τη διάρκεια της νύχτας, η εικόνα δεν είναι σκοτεινή μιας και η υπέρυθρη ακτινοβολία μπορεί να εντοπίσει τις διαφορές στη θερμοκρασία. Δυστυχώς, είναι δύσκολο να ξεχωρίσουν οι χαμηλές νεφώσεις και η ομίχλη από τις θερμοκρασίες εδάφους και έτσι μπορεί να είναι σχετικά αόρατα κατά τη διάρκεια της νύχτας. Οι εικόνες από τον δορυφόρο Meteosat για την Ευρώπη ενημερώνονται σε πραγματικό χρόνο κάθε 5 λεπτά. Οι εικόνες από τους δορυφόρους GOES-16/GOES-17 (Βόρεια & Λατινική Αμερική) και Himawari (Ασία) ενημερώνονται κάθε 10 λεπτά.